CW3175 Weather Reports


time (UTC)temp
F
wind
direction
speed
knots
gust
knots
rain 1hr
in
rain 24hr
in
rain mn
in
humidity
%
barometer
mb
20141026033304 59 300 0.9 6.1 0.00 0.00 0.00 29 1012.4
20141026031802 60 253 1.7 6.1 0.00 0.00 0.00 28 1012.5
20141026030304 60 287 1.7 9.6 0.00 0.00 0.00 27 1012.4
20141026024755 61 284 0.9 7.8 0.00 0.00 0.00 27 1012.3
20141026023248 62 304 1.7 12.2 0.00 0.00 0.00 28 1012.3
20141026021748 62 287 2.6 8.7 0.00 0.00 0.00 27 1012.3
20141026020245 62 311 2.6 8.7 0.00 0.00 0.00 27 1012.3
20141026014738 63 252 0.9 7.8 0.00 0.00 0.00 26 1012.2
20141026013232 64 293 1.7 8.7 0.00 0.00 0.00 25 1012.1
20141026011726 64 268 1.7 9.6 0.00 0.00 0.00 24 1012.0
20141026010222 65 288 1.7 8.7 0.00 0.00 0.00 23 1011.8
20141026004720 65 265 1.7 11.3 0.00 0.00 0.00 22 1011.3
20141026003220 66 294 2.6 11.3 0.00 0.00 0.00 22 1011.2
20141026001716 66 336 4.3 13.0 0.00 0.00 0.00 22 1011.1
20141026000214 67 304 3.5 12.2 0.00 0.00 0.00 23 1011.0
20141025234712 67 257 2.6 12.2 0.00 0.00 0.00 22 1010.8
20141025233212 67 291 0.9 10.4 0.00 0.00 0.00 22 1010.8
20141025231710 68 300 0.9 11.3 0.00 0.00 0.00 21 1010.6
20141025230155 69 305 3.5 12.2 0.00 0.00 0.00 20 1010.5
20141025224654 70 332 4.3 14.8 0.00 0.00 0.00 20 1010.4
20141025223155 70 298 4.3 13.0 0.00 0.00 0.00 19 1010.5
20141025221651 71 302 5.2 12.2 0.00 0.00 0.00 20 1010.2
20141025220150 72 296 3.5 13.9 0.00 0.00 0.00 18 1010.3
20141025214651 73 308 4.3 14.8 0.00 0.00 0.00 17 1010.3
20141025213143 73 300 3.5 12.2 0.00 0.00 0.00 18 1010.3
20141025211641 74 320 5.2 14.8 0.00 0.00 0.00 18 1010.2
20141025210139 74 273 2.6 13.9 0.00 0.00 0.00 18 1010.1
20141025204637 74 298 2.6 10.4 0.00 0.00 0.00 19 1010.2
20141025203135 74 325 5.2 17.4 0.00 0.00 0.00 21 1010.4
20141025201635 74 271 4.3 13.0 0.00 0.00 0.00 21 1010.5
20141025200134 74 277 5.2 16.5 0.00 0.00 0.00 19 1010.6
20141025194633 74 307 4.3 11.3 0.00 0.00 0.00 21 1010.5
20141025193135 74 328 3.5 12.2 0.00 0.00 0.00 22 1010.6
20141025191632 74 320 5.2 17.4 0.00 0.00 0.00 23 1010.6
20141025190132 74 291 2.6 13.9 0.00 0.00 0.00 24 1010.7
20141025184629 74 295 2.6 10.4 0.00 0.00 0.00 25 1010.9
20141025183129 73 248 3.5 11.3 0.00 0.00 0.00 25 1010.7
20141025181629 72 275 4.3 13.0 0.00 0.00 0.00 27 1011.1
20141025180130 72 294 2.6 9.6 0.00 0.00 0.00 29 1011.4
20141025174628 72 326 2.6 10.4 0.00 0.00 0.00 32 1011.6
20141025173127 71 307 2.6 10.4 0.00 0.00 0.00 32 1011.7
20141025171625 71 311 3.5 11.3 0.00 0.00 0.00 32 1011.7
20141025170123 70 276 2.6 10.4 0.00 0.00 0.00 37 1011.8
20141025164623 70 321 2.6 12.2 0.00 0.00 0.00 40 1011.9
20141025163123 69 296 3.5 11.3 0.00 0.00 0.00 42 1011.8
20141025161625 68 321 2.6 12.2 0.00 0.00 0.00 48 1012.0
20141025160121 68 342 2.6 12.2 0.00 0.00 0.00 50 1011.8
20141025154620 67 312 2.6 10.4 0.00 0.00 0.00 56 1011.8
20141025153118 66 342 3.5 9.6 0.00 0.00 0.00 60 1011.6
20141025151618 65 294 2.6 8.7 0.00 0.00 0.00 65 1011.6
20141025150116 65 305 2.6 13.0 0.00 0.00 0.00 68 1011.2
20141025144600 64 347 2.6 9.6 0.00 0.00 0.00 74 1011.3
20141025143100 63 281 0.9 7.8 0.00 0.00 0.00 79 1011.2
20141025141558 62 281 0.9 5.2 0.00 0.00 0.00 85 1011.2
20141025140050 60 286 0.9 6.1 0.00 0.00 0.00 88 1011.2
20141025134542 60 263 0.9 6.1 0.00 0.00 0.00 90 1010.9
20141025133041 59 273 0.9 5.2 0.00 0.00 0.00 92 1010.8
20141025131539 58 272 0.0 1.7 0.00 0.00 0.00 93 1010.8
20141025130033 57 272 0.0 1.7 0.00 0.00 0.00 94 1010.7
20141025124533 57 272 0.0 2.6 0.00 0.00 0.00 93 1010.8
20141025123022 57 272 0.0 2.6 0.00 0.00 0.00 93 1010.8
20141025121514 57 275 0.0 3.5 0.00 0.00 0.00 92 1010.7
20141025115935 58 282 0.9 5.2 0.00 0.00 0.00 92 1010.6
20141025112932 58 256 0.9 7.0 0.00 0.00 0.00 91 1010.7
20141025111430 58 283 0.9 7.8 0.00 0.00 0.00 91 1010.7
20141025105927 58 298 1.7 8.7 0.00 0.00 0.00 91 1010.7
20141025104427 58 282 1.7 7.8 0.00 0.00 0.00 90 1010.7
20141025102925 58 277 2.6 8.7 0.00 0.00 0.00 89 1010.7
20141025101419 58 304 0.9 8.7 0.00 0.00 0.00 88 1010.6
20141025095920 58 250 0.0 5.2 0.00 0.00 0.00 87 1010.5
20141025094418 58 303 1.7 7.8 0.00 0.00 0.00 86 1010.4
20141025092914 58 268 0.9 4.3 0.00 0.00 0.00 84 1010.3
20141025091416 58 308 0.0 3.5 0.00 0.00 0.00 84 1010.2
20141025085903 58 311 0.0 4.3 0.00 0.00 0.00 85 1010.4
20141025084331 58 265 0.9 7.8 0.00 0.00 0.00 85 1010.4
20141025082831 58 235 0.0 4.3 0.00 0.00 0.00 85 1009.9
20141025081327 58 234 0.0 1.7 0.00 0.00 0.00 84 1010.0
20141025075813 58 234 0.0 4.3 0.00 0.00 0.00 83 1010.1
20141025074309 58 246 0.9 7.8 0.00 0.00 0.00 82 1010.1
20141025072811 59 205 0.9 5.2 0.00 0.00 0.00 81 1010.1
20141025071307 59 229 0.9 6.1 0.00 0.00 0.00 80 1010.0
20141025065747 60 228 1.7 7.8 0.00 0.00 0.00 78 1010.1
20141025064238 60 201 0.0 4.3 0.00 0.00 0.00 76 1010.6
20141025062728 60 175 0.0 5.2 0.00 0.00 0.00 76 1010.6
20141025061222 60 240 1.7 7.8 0.00 0.00 0.00 74 1010.7
20141025055718 60 230 0.9 5.2 0.00 0.00 0.00 72 1010.8
20141025054216 61 215 0.0 5.2 0.00 0.00 0.00 70 1011.0
20141025052705 61 220 0.9 7.8 0.00 0.00 0.00 68 1010.9
20141025051151 62 221 0.9 9.6 0.00 0.00 0.00 66 1011.0
20141025045628 62 232 0.9 8.7 0.00 0.00 0.00 65 1011.1
20141025044129 62 219 1.7 10.4 0.00 0.00 0.00 64 1011.2
20141025042628 62 213 0.9 6.1 0.00 0.00 0.00 63 1011.4
20141025041126 62 234 0.0 3.5 0.00 0.00 0.00 61 1011.5
20141025035617 62 227 0.0 1.7 0.00 0.00 0.00 62 1011.6
20141025034107 62 238 0.0 5.2 0.00 0.00 0.00 60 1011.7